APSTAR-6E

Last updated on Fri Jul 10 2026 00:03:07 GMT+0000 (Coordinated Universal Time)

1 55239U 23005A 26190.02505486 -.00000304 00000+0 00000+0 0 9998 2 55239 0.0468 236.8359 0001583 333.7608 219.4086 1.00271079 18902
UTC large
Height (km)
Speed (km/s)
/
Latitude / Longitude
Inclination (degrees)
Orbital Period (minutes)
Azimuth
Elevation
Range (km)
Doppler Factor

Next 0 passes for location: London (51.5072 / 0.1276)

No passes found over London.
APSTAR-6E